When you browse on this site, cookies collect data to enhance your experience and personalize the content and advertising you see.
Visit our Privacy Policy to learn more. By continuing to use the site, you agree to this use of cookies and data.
  • în România
  • Lista ţărilor
  • Pe 7 zile
  • Temperatura apei
  • Hartă satelitară
  • Meteo pe hartă
  • Widget-uri
  • user-avatar
    Intrare

    Meteo pe oră la Resht

    Astăzi, 21 Ianuarie, Luni

    Timp Temperatura Precipitaţii Vânt Presiune Umiditate
    00:00 +8°C° 0 mm 1 m/s 770 mmHg 51%
    01:00 +8°C° 0 mm 1 m/s 770 mmHg 50%
    02:00 +8°C° 0 mm 1 m/s 770 mmHg 49%
    03:00 +8°C° 0 mm 1 m/s 770 mmHg 48%
    04:00 +7°C° 0 mm 1 m/s 770 mmHg 47%
    05:00 +7°C° 0 mm 1 m/s 770 mmHg 46%
    06:00 +7°C° 0 mm 1 m/s 770 mmHg 45%
    07:00 +8°C° 0 mm 1 m/s 770 mmHg 42%
    08:00 +9°C° 0 mm 1 m/s 770 mmHg 39%
    09:00 +10°C° 0 mm 0 m/s 770 mmHg 37%
    10:00 +12°C° 0 mm 1 m/s 769 mmHg 35%
    11:00 +13°C° 0 mm 1 m/s 769 mmHg 34%
    12:00 +14°C° 0 mm 2 m/s 768 mmHg 32%
    13:00 +14°C° 0 mm 2 m/s 768 mmHg 36%
    14:00 +13°C° 0 mm 3 m/s 767 mmHg 40%
    15:00 +13°C° 0 mm 3 m/s 767 mmHg 43%
    16:00 +12°C° 0 mm 3 m/s 767 mmHg 50%
    17:00 +12°C° 0 mm 2 m/s 767 mmHg 57%
    18:00 +9°C° 0 mm 2 m/s 767 mmHg 65%
    19:00 +9°C° 0 mm 2 m/s 767 mmHg 61%
    20:00 +9°C° 0 mm 2 m/s 766 mmHg 58%
    21:00 +10°C° 0 mm 1 m/s 766 mmHg 55%
    22:00 +9°C° 0 mm 1 m/s 766 mmHg 52%
    23:00 +9°C° 0 mm 1 m/s 766 mmHg 48%

    Mâine, 22 Ianuarie, Marţi

    Timp Temperatura Precipitaţii Vânt Presiune Umiditate
    00:00 +9°C° 0 mm 1 m/s 765 mmHg 45%
    01:00 +9°C° 0 mm 1 m/s 765 mmHg 44%
    02:00 +9°C° 0 mm 1 m/s 765 mmHg 43%
    03:00 +9°C° 0 mm 1 m/s 764 mmHg 42%
    04:00 +9°C° 0 mm 1 m/s 764 mmHg 42%
    05:00 +9°C° 0 mm 1 m/s 764 mmHg 42%
    06:00 +9°C° 0 mm 1 m/s 764 mmHg 41%
    07:00 +10°C° 0 mm 1 m/s 764 mmHg 40%
    08:00 +11°C° 0 mm 1 m/s 764 mmHg 39%
    09:00 +11°C° 0 mm 0 m/s 764 mmHg 37%
    10:00 +13°C° 0 mm 1 m/s 764 mmHg 36%
    11:00 +14°C° 0 mm 1 m/s 763 mmHg 34%
    12:00 +16°C° 0 mm 1 m/s 763 mmHg 32%
    13:00 +15°C° 0 mm 2 m/s 763 mmHg 35%
    14:00 +15°C° 0 mm 2 m/s 762 mmHg 38%
    15:00 +15°C° 0 mm 2 m/s 762 mmHg 41%
    16:00 +14°C° 0 mm 2 m/s 763 mmHg 48%
    17:00 +13°C° 0 mm 1 m/s 763 mmHg 55%
    18:00 +11°C° 0 mm 1 m/s 764 mmHg 61%
    19:00 +11°C° 0 mm 1 m/s 764 mmHg 60%
    20:00 +10°C° 0 mm 0 m/s 765 mmHg 59%
    21:00 +9°C° 0 mm 0 m/s 765 mmHg 58%
    22:00 +9°C° 0 mm 0 m/s 765 mmHg 57%
    23:00 +9°C° 0 mm 0 m/s 766 mmHg 56%

    Poimâine, 23 Ianuarie, Miercuri

    Timp Temperatura Precipitaţii Vânt Presiune Umiditate
    00:00 +9°C° 0 mm 0 m/s 766 mmHg 55%
    01:00 +9°C° 0 mm 1 m/s 766 mmHg 56%
    02:00 +9°C° 0 mm 1 m/s 766 mmHg 57%
    03:00 +9°C° 0 mm 1 m/s 767 mmHg 58%
    04:00 +8°C° 0 mm 1 m/s 767 mmHg 62%
    05:00 +8°C° 0 mm 1 m/s 767 mmHg 66%
    06:00 +8°C° 0 mm 1 m/s 768 mmHg 70%
    07:00 +8°C° 0 mm 0 m/s 768 mmHg 69%
    08:00 +9°C° 0 mm 0 m/s 768 mmHg 68%
    09:00 +10°C° 0 mm 0 m/s 768 mmHg 67%
    10:00 +11°C° 0 mm 1 m/s 768 mmHg 64%
    11:00 +12°C° 0 mm 1 m/s 768 mmHg 61%
    12:00 +13°C° 0 mm 2 m/s 768 mmHg 59%
    13:00 +13°C° 0 mm 2 m/s 767 mmHg 61%
    14:00 +13°C° 0 mm 2 m/s 767 mmHg 63%
    15:00 +12°C° 0 mm 3 m/s 767 mmHg 66%
    16:00 +12°C° 0 mm 2 m/s 767 mmHg 72%
    17:00 +10°C° 0 mm 2 m/s 768 mmHg 79%
    18:00 +9°C° 0 mm 2 m/s 768 mmHg 86%
    19:00 +9°C° 0 mm 2 m/s 769 mmHg 87%
    20:00 +9°C° 0 mm 1 m/s 769 mmHg 88%
    21:00 +9°C° 0 mm 1 m/s 769 mmHg 88%
    22:00 +9°C° 0 mm 1 m/s 769 mmHg 86%
    23:00 +9°C° 0 mm 1 m/s 769 mmHg 84%

    24 Ianuarie, Joi

    Timp Temperatura Precipitaţii Vânt Presiune Umiditate
    00:00 +9°C° 0 mm 1 m/s 769 mmHg 81%
    01:00 +9°C° 0 mm 1 m/s 769 mmHg 78%
    02:00 +9°C° 0 mm 1 m/s 769 mmHg 74%
    03:00 +9°C° 0 mm 1 m/s 769 mmHg 70%
    04:00 +9°C° 0 mm 1 m/s 769 mmHg 67%
    05:00 +9°C° 0 mm 1 m/s 769 mmHg 64%
    06:00 +9°C° 0 mm 1 m/s 769 mmHg 61%
    07:00 +10°C° 0 mm 1 m/s 769 mmHg 57%
    08:00 +11°C° 0 mm 1 m/s 769 mmHg 52%
    09:00 +12°C° 0 mm 1 m/s 769 mmHg 47%
    10:00 +14°C° 0 mm 1 m/s 769 mmHg 44%
    11:00 +15°C° 0 mm 2 m/s 768 mmHg 41%
    12:00 +17°C° 0 mm 2 m/s 768 mmHg 38%
    13:00 +17°C° 0 mm 3 m/s 767 mmHg 39%
    14:00 +17°C° 0 mm 3 m/s 766 mmHg 41%
    15:00 +17°C° 0 mm 3 m/s 766 mmHg 42%
    16:00 +16°C° 0 mm 3 m/s 766 mmHg 47%
    17:00 +14°C° 0 mm 2 m/s 766 mmHg 51%
    18:00 +13°C° 0 mm 2 m/s 767 mmHg 55%
    19:00 +13°C° 0 mm 2 m/s 767 mmHg 52%
    20:00 +13°C° 0 mm 2 m/s 767 mmHg 49%
    21:00 +12°C° 0 mm 2 m/s 767 mmHg 46%
    22:00 +12°C° 0 mm 2 m/s 766 mmHg 44%
    23:00 +12°C° 0 mm 2 m/s 766 mmHg 42%

    25 Ianuarie, Vineri

    Timp Temperatura Precipitaţii Vânt Presiune Umiditate
    00:00 +12°C° 0 mm 2 m/s 766 mmHg 40%
    01:00 +12°C° 0 mm 2 m/s 766 mmHg 40%
    02:00 +12°C° 0 mm 2 m/s 765 mmHg 39%
    03:00 +12°C° 0 mm 2 m/s 765 mmHg 39%
    04:00 +12°C° 0 mm 2 m/s 765 mmHg 39%
    05:00 +12°C° 0 mm 2 m/s 765 mmHg 39%
    06:00 +12°C° 0 mm 2 m/s 764 mmHg 38%
    07:00 +13°C° 0 mm 2 m/s 764 mmHg 38%
    08:00 +14°C° 0 mm 2 m/s 764 mmHg 37%
    09:00 +15°C° 0 mm 1 m/s 764 mmHg 36%
    10:00 +18°C° 0 mm 1 m/s 764 mmHg 32%
    11:00 +20°C° 0 mm 1 m/s 763 mmHg 28%
    12:00 +22°C° 0 mm 1 m/s 763 mmHg 25%
    13:00 +21°C° 0 mm 2 m/s 762 mmHg 26%
    14:00 +21°C° 0 mm 2 m/s 762 mmHg 27%
    15:00 +21°C° 0 mm 2 m/s 761 mmHg 29%
    16:00 +19°C° 0 mm 2 m/s 761 mmHg 33%
    17:00 +17°C° 0 mm 2 m/s 762 mmHg 36%
    18:00 +16°C° 0 mm 1 m/s 762 mmHg 40%
    19:00 +15°C° 0 mm 1 m/s 762 mmHg 40%
    20:00 +15°C° 0 mm 1 m/s 762 mmHg 39%
    21:00 +15°C° 0 mm 1 m/s 762 mmHg 39%
    22:00 +14°C° 0 mm 1 m/s 762 mmHg 40%
    23:00 +14°C° 0 mm 1 m/s 762 mmHg 40%

    26 Ianuarie, Sâmbătă

    Timp Temperatura Precipitaţii Vânt Presiune Umiditate
    00:00 +14°C° 0 mm 1 m/s 762 mmHg 41%
    01:00 +13°C° 0 mm 1 m/s 762 mmHg 43%
    02:00 +13°C° 0 mm 1 m/s 762 mmHg 45%
    03:00 +12°C° 0 mm 1 m/s 762 mmHg 47%
    04:00 +12°C° 0 mm 1 m/s 762 mmHg 48%
    05:00 +12°C° 0 mm 1 m/s 762 mmHg 49%
    06:00 +12°C° 0 mm 1 m/s 762 mmHg 50%
    07:00 +13°C° 0 mm 1 m/s 762 mmHg 48%
    08:00 +14°C° 0 mm 1 m/s 762 mmHg 45%
    09:00 +15°C° 0 mm 1 m/s 763 mmHg 43%
    10:00 +17°C° 0 mm 2 m/s 762 mmHg 41%
    11:00 +18°C° 0 mm 2 m/s 762 mmHg 39%
    12:00 +19°C° 0 mm 3 m/s 761 mmHg 37%
    13:00 +19°C° 0 mm 3 m/s 761 mmHg 38%
    14:00 +19°C° 0 mm 3 m/s 761 mmHg 38%
    15:00 +19°C° 0 mm 3 m/s 760 mmHg 39%
    16:00 +18°C° 0 mm 3 m/s 761 mmHg 43%
    17:00 +16°C° 0 mm 2 m/s 761 mmHg 47%
    18:00 +15°C° 0 mm 2 m/s 761 mmHg 51%
    19:00 +15°C° 0 mm 2 m/s 761 mmHg 50%
    20:00 +15°C° 0 mm 2 m/s 761 mmHg 49%
    21:00 +14°C° 0 mm 2 m/s 761 mmHg 49%
    22:00 +14°C° 0 mm 2 m/s 761 mmHg 48%
    23:00 +14°C° 0 mm 1 m/s 761 mmHg 47%
    Arată mai mult